When you browse on this site, cookies collect data to enhance your experience and personalize the content and advertising you see.
Visit our Privacy Policy to learn more. By continuing to use the site, you agree to this use of cookies and data.
  • In Sweden
  • List of Countries
  • For 7 days
  • Water Temperature
  • Weather Map
  • Weather Widgets
  • user-avatar
    Login

    Hourly Weather Satif

    Today, 21 September, Saturday

    Time Temperature Precipitation Wind Pressure Humidity
    00:00 +25°C° 0 mm 2 mps 673 mmHg 35%
    01:00 +25°C° 0 mm 2 mps 673 mmHg 35%
    02:00 +24°C° 0 mm 2 mps 673 mmHg 36%
    03:00 +24°C° 0 mm 2 mps 673 mmHg 37%
    04:00 +24°C° 0 mm 3 mps 673 mmHg 36%
    05:00 +24°C° 0 mm 3 mps 673 mmHg 36%
    06:00 +24°C° 0 mm 2 mps 674 mmHg 40%
    07:00 +26°C° 0 mm 4 mps 675 mmHg 36%
    08:00 +27°C° 0 mm 6 mps 675 mmHg 31%
    09:00 +29°C° 0 mm 8 mps 676 mmHg 27%
    10:00 +31°C° 0 mm 8 mps 676 mmHg 26%
    11:00 +30°C° 0 mm 7 mps 676 mmHg 25%
    12:00 +32°C° 0 mm 7 mps 676 mmHg 23%
    13:00 +32°C° 0 mm 7 mps 675 mmHg 24%
    14:00 +32°C° 0 mm 6 mps 675 mmHg 25%
    15:00 +32°C° 0 mm 6 mps 675 mmHg 26%
    16:00 +30°C° 0 mm 5 mps 674 mmHg 29%
    17:00 +29°C° 0 mm 4 mps 674 mmHg 32%
    18:00 +28°C° 0 mm 3 mps 674 mmHg 34%
    19:00 +27°C° 0.1 mm 3 mps 674 mmHg 35%
    20:00 +27°C° 0.1 mm 3 mps 674 mmHg 35%
    21:00 +27°C° 0.1 mm 3 mps 674 mmHg 35%
    22:00 +26°C° 0 mm 3 mps 674 mmHg 36%
    23:00 +26°C° 0 mm 4 mps 674 mmHg 37%

    Tomorrow, 22 September, Sunday

    Time Temperature Precipitation Wind Pressure Humidity
    00:00 +26°C° 0 mm 4 mps 674 mmHg 39%
    01:00 +25°C° 0 mm 3 mps 674 mmHg 42%
    02:00 +24°C° 0 mm 2 mps 673 mmHg 46%
    03:00 +24°C° 0 mm 2 mps 673 mmHg 49%
    04:00 +24°C° 0 mm 2 mps 673 mmHg 49%
    05:00 +24°C° 0 mm 3 mps 673 mmHg 48%
    06:00 +23°C° 0 mm 4 mps 673 mmHg 48%
    07:00 +25°C° 0 mm 4 mps 674 mmHg 42%
    08:00 +27°C° 0 mm 5 mps 674 mmHg 37%
    09:00 +29°C° 0 mm 5 mps 675 mmHg 31%
    10:00 +30°C° 0 mm 7 mps 675 mmHg 29%
    11:00 +32°C° 0 mm 9 mps 675 mmHg 27%
    12:00 +32°C° 0 mm 11 mps 675 mmHg 25%
    13:00 +32°C° 0 mm 10 mps 675 mmHg 26%
    14:00 +32°C° 0 mm 9 mps 675 mmHg 27%
    15:00 +31°C° 0 mm 8 mps 674 mmHg 28%
    16:00 +29°C° 0 mm 7 mps 674 mmHg 34%
    17:00 +28°C° 0 mm 6 mps 674 mmHg 40%
    18:00 +27°C° 0 mm 5 mps 674 mmHg 45%
    19:00 +27°C° 0 mm 4 mps 674 mmHg 46%
    20:00 +26°C° 0 mm 4 mps 675 mmHg 46%
    21:00 +26°C° 0 mm 3 mps 675 mmHg 46%
    22:00 +25°C° 0 mm 3 mps 675 mmHg 49%
    23:00 +25°C° 0 mm 2 mps 675 mmHg 53%

    Day after tomorrow, 23 September, Monday

    Time Temperature Precipitation Wind Pressure Humidity
    00:00 +24°C° 0 mm 2 mps 674 mmHg 56%
    01:00 +24°C° 0 mm 2 mps 674 mmHg 57%
    02:00 +23°C° 0 mm 2 mps 674 mmHg 58%
    03:00 +23°C° 0 mm 2 mps 674 mmHg 59%
    04:00 +21°C° 0 mm 2 mps 674 mmHg 64%
    05:00 +20°C° 0 mm 2 mps 674 mmHg 68%
    06:00 +20°C° 0 mm 2 mps 674 mmHg 72%
    07:00 +21°C° 0 mm 2 mps 674 mmHg 65%
    08:00 +23°C° 0 mm 1 mps 675 mmHg 57%
    09:00 +25°C° 0 mm 1 mps 676 mmHg 50%
    10:00 +26°C° 0 mm 1 mps 676 mmHg 46%
    11:00 +27°C° 0 mm 1 mps 676 mmHg 42%
    12:00 +28°C° 0 mm 2 mps 676 mmHg 38%
    13:00 +28°C° 0 mm 2 mps 676 mmHg 38%
    14:00 +29°C° 0 mm 3 mps 676 mmHg 38%
    15:00 +29°C° 0 mm 3 mps 675 mmHg 37%
    16:00 +27°C° 0 mm 3 mps 675 mmHg 42%
    17:00 +26°C° 0 mm 3 mps 675 mmHg 46%
    18:00 +25°C° 0 mm 2 mps 675 mmHg 50%
    19:00 +24°C° 0 mm 2 mps 675 mmHg 53%
    20:00 +23°C° 0 mm 2 mps 675 mmHg 55%
    21:00 +22°C° 0 mm 1 mps 675 mmHg 58%
    22:00 +22°C° 0 mm 1 mps 675 mmHg 60%
    23:00 +22°C° 0 mm 1 mps 675 mmHg 61%

    24 September, Tuesday

    Time Temperature Precipitation Wind Pressure Humidity
    00:00 +21°C° 0 mm 1 mps 675 mmHg 63%
    01:00 +19°C° 0 mm 0 mps 674 mmHg 65%
    02:00 +19°C° 0 mm 0 mps 674 mmHg 66%
    03:00 +18°C° 0 mm 0 mps 674 mmHg 68%
    04:00 +18°C° 0 mm 0 mps 674 mmHg 68%
    05:00 +18°C° 0 mm 0 mps 674 mmHg 69%
    06:00 +18°C° 0 mm 0 mps 674 mmHg 69%
    07:00 +21°C° 0 mm 1 mps 674 mmHg 62%
    08:00 +23°C° 0 mm 1 mps 675 mmHg 55%
    09:00 +24°C° 0 mm 1 mps 676 mmHg 48%
    10:00 +25°C° 0 mm 1 mps 676 mmHg 41%
    11:00 +27°C° 0 mm 2 mps 676 mmHg 35%
    12:00 +28°C° 0 mm 2 mps 676 mmHg 28%
    13:00 +28°C° 0 mm 3 mps 676 mmHg 27%
    14:00 +28°C° 0 mm 3 mps 676 mmHg 26%
    15:00 +29°C° 0 mm 3 mps 675 mmHg 25%
    16:00 +27°C° 0 mm 3 mps 675 mmHg 32%
    17:00 +26°C° 0 mm 3 mps 675 mmHg 38%
    18:00 +25°C° 0 mm 2 mps 674 mmHg 44%
    19:00 +24°C° 0 mm 2 mps 674 mmHg 49%
    20:00 +23°C° 0 mm 1 mps 674 mmHg 53%
    21:00 +22°C° 0 mm 1 mps 675 mmHg 58%
    22:00 +22°C° 0 mm 1 mps 674 mmHg 60%
    23:00 +22°C° 0 mm 1 mps 674 mmHg 62%

    25 September, Wednesday

    Time Temperature Precipitation Wind Pressure Humidity
    00:00 +19°C° 0 mm 0 mps 673 mmHg 64%
    01:00 +19°C° 0 mm 0 mps 673 mmHg 65%
    02:00 +18°C° 0 mm 0 mps 673 mmHg 66%
    03:00 +18°C° 0 mm 0 mps 672 mmHg 67%
    04:00 +18°C° 0 mm 0 mps 672 mmHg 67%
    05:00 +18°C° 0 mm 0 mps 672 mmHg 67%
    06:00 +18°C° 0 mm 0 mps 672 mmHg 66%
    07:00 +20°C° 0 mm 0 mps 673 mmHg 57%
    08:00 +21°C° 0 mm 0 mps 674 mmHg 48%
    09:00 +25°C° 0 mm 1 mps 674 mmHg 38%
    10:00 +26°C° 0 mm 1 mps 675 mmHg 33%
    11:00 +27°C° 0 mm 2 mps 675 mmHg 29%
    12:00 +28°C° 0 mm 2 mps 675 mmHg 24%
    13:00 +29°C° 0 mm 3 mps 675 mmHg 23%
    14:00 +29°C° 0 mm 3 mps 674 mmHg 23%
    15:00 +29°C° 0 mm 4 mps 674 mmHg 22%
    16:00 +28°C° 0 mm 3 mps 674 mmHg 27%
    17:00 +27°C° 0 mm 2 mps 673 mmHg 32%
    18:00 +25°C° 0 mm 2 mps 673 mmHg 36%
    19:00 +24°C° 0 mm 1 mps 673 mmHg 39%
    20:00 +24°C° 0 mm 1 mps 673 mmHg 43%
    21:00 +23°C° 0 mm 1 mps 674 mmHg 46%
    22:00 +22°C° 0 mm 1 mps 673 mmHg 48%
    23:00 +22°C° 0 mm 1 mps 673 mmHg 49%

    26 September, Thursday

    Time Temperature Precipitation Wind Pressure Humidity
    00:00 +21°C° 0 mm 1 mps 673 mmHg 51%
    01:00 +21°C° 0 mm 1 mps 673 mmHg 51%
    02:00 +21°C° 0 mm 1 mps 672 mmHg 52%
    03:00 +20°C° 0 mm 1 mps 672 mmHg 53%
    04:00 +20°C° 0 mm 1 mps 672 mmHg 53%
    05:00 +18°C° 0 mm 0 mps 672 mmHg 53%
    06:00 +18°C° 0 mm 0 mps 673 mmHg 53%
    07:00 +22°C° 0 mm 1 mps 673 mmHg 46%
    08:00 +24°C° 0 mm 1 mps 674 mmHg 38%
    09:00 +26°C° 0 mm 1 mps 675 mmHg 31%
    10:00 +27°C° 0 mm 2 mps 675 mmHg 27%
    11:00 +29°C° 0 mm 3 mps 676 mmHg 23%
    12:00 +30°C° 0 mm 4 mps 676 mmHg 19%
    13:00 +30°C° 0 mm 4 mps 675 mmHg 19%
    14:00 +30°C° 0 mm 5 mps 675 mmHg 18%
    15:00 +30°C° 0 mm 5 mps 675 mmHg 18%
    16:00 +29°C° 0 mm 4 mps 674 mmHg 22%
    17:00 +28°C° 0 mm 4 mps 674 mmHg 26%
    18:00 +26°C° 0 mm 3 mps 674 mmHg 29%
    19:00 +26°C° 0 mm 2 mps 674 mmHg 30%
    20:00 +25°C° 0 mm 2 mps 674 mmHg 31%
    21:00 +25°C° 0 mm 2 mps 674 mmHg 32%
    22:00 +24°C° 0 mm 2 mps 674 mmHg 32%
    23:00 +24°C° 0 mm 2 mps 673 mmHg 32%
    Show more